Location: Huntsville
(41.2590°N, 111.7678°W)
Time: 11:41:52
(UTC+00:00)

Transit 2A Rocket - Visible Passes

Search period start: 13 June 2021 00:00
Search period end: 23 June 2021 00:00
Orbit: 592 x 910 km, 66.7° (Epoch: 12 June)

Date Brightness Start Highest point End Pass type
(mag) Time Alt. Az. Time Alt. Az. Time Alt. Az.
13 Jun 6.8 08:09:38 14° E 08:09:38 14° E 08:11:26 10° ENE visible
13 Jun 4.9 09:49:31 32° WSW 09:51:10 52° WNW 09:55:27 10° NNE visible
14 Jun 4.3 09:07:56 65° S 09:08:32 82° ESE 09:12:55 10° NNE visible
14 Jun 6.9 10:49:40 10° WNW 10:51:42 13° NW 10:53:46 10° NNW visible
15 Jun 5.3 08:26:19 40° ESE 08:26:19 40° ESE 08:30:06 10° NE visible
15 Jun 6.4 10:06:11 13° W 10:08:43 21° NW 10:12:05 10° N visible
16 Jun 6.4 07:44:39 20° E 07:44:39 20° E 07:46:54 10° ENE visible
16 Jun 5.6 09:24:32 28° W 09:25:51 35° NW 09:29:56 10° NNE visible
17 Jun 4.5 08:42:50 63° W 08:43:08 66° WNW 08:47:31 10° NNE visible
18 Jun 4.8 08:01:06 57° ENE 08:01:06 57° ENE 08:04:52 10° NE visible
18 Jun 6.9 09:40:59 10° W 09:43:33 15° NW 09:46:13 10° N visible
19 Jun 6.0 07:19:20 27° ENE 07:19:20 27° ENE 07:21:58 10° NE visible
19 Jun 6.2 08:59:12 21° W 09:00:37 25° NW 09:04:18 10° N visible
20 Jun 6.8 06:37:31 14° ENE 06:37:31 14° ENE 06:38:31 10° ENE visible
20 Jun 5.2 08:17:24 42° WNW 08:17:48 43° NW 08:22:03 10° NNE visible
21 Jun 4.6 07:35:33 72° N 07:35:33 72° N 07:39:33 10° NNE visible
21 Jun 7.2 09:16:59 10° WNW 09:18:28 11° NW 09:19:58 10° NNW visible
22 Jun 5.4 06:53:38 40° ENE 06:53:38 40° ENE 06:56:50 10° NE visible
22 Jun 6.7 08:33:30 14° WNW 08:35:25 18° NW 08:38:33 10° N visible
